Regional Weather Roundup
Issued by NWS Upton, NY

Current Version | Previous Version | Text Only | Print | Product List | Glossary On
Versions: 1 2 3 4 5 6 7 8 9 10 11 12 13 14 15 16 17 18 19 20 21 22 23 24 25 26 27 28 29 30 31 32 33 34 35 36 37 38 39 40 41 42 43 44 45 46 47 48 49 50
000 ASUS41 KOKX 270408 RWROKX REGIONAL WEATHER ROUNDUP NATIONAL WEATHER SERVICE NEW YORK NY 1100 PM EST SUN FEB 26 2017 NOTE: "FAIR" INDICATES FEW OR NO CLOUDS BELOW 12,000 FEET WITH NO SIGNIFICANT WEATHER AND/OR OBSTRUCTIONS TO VISIBILITY. NYZ071-072-176-178-NJZ106-104-270500- NEW YORK CITY METRO AREA CITY SKY/WX TMP DP RH WIND PRES REMARKS Central Park N/A 37 15 40 W8 30.27R WCI 31 Wall St Helipt NOT AVBL LaGuardia APRT N/A 39 15 37 W15 30.25R WCI 31 Kennedy INTL N/A 38 18 44 W10 30.27R WCI 31 Breezy Point N/A 36 N/A N/A W10 N/A WCI 28 Newark/Liberty N/A 35 15 44 W7 30.26R WCI 29 Teterboro N/A 36 17 46 W8 30.25R WCI 30 $$ NYZ177-179-078>081-270500- LONG ISLAND NEW YORK CITY SKY/WX TMP DP RH WIND PRES REMARKS Jones Beach N/A 37 N/A N/A W8 N/A WCI 31 Matinecock PT N/A 37 N/A N/A W13 N/A WCI 29 Farmingdale N/A 32 18 56 CALM 30.25R MacArthur/ISP N/A 32 18 56 SW3 30.24R Shirley N/A 27 20 75 CALM 30.25R Westhampton N/A 26 15 63 CALM 30.26R Southampton NOT AVBL Bridgehampton NOT AVBL East Hampton N/A 33 17 51 W5 30.23S WCI 29 Montauk N/A 37 18 46 W12G18 30.23R WCI 29 $$ NYZ052-065-067-270500- HUDSON VALLEY CITY SKY/WX TMP DP RH WIND PRES REMARKS White Plains N/A 32 15 49 W3 30.22R Newburgh CLEAR 30 19 64 W8 30.22R WCI 23 Montgomery N/A 27 20 75 SW3 30.21R Poughkeepsie N/A 28 18 66 SW3 30.22R Albany N/A 29 19 66 S5 30.18R WCI 24 $$ NJZ001-105-106-008-010-013-015-019>022-104-270500- NEW JERSEY CITY SKY/WX TMP DP RH WIND PRES REMARKS Newark/Liberty N/A 35 15 44 W7 30.26R WCI 29 Teterboro N/A 36 17 46 W8 30.25R WCI 30 Caldwell N/A 33 16 49 SW3 30.26R Somerville N/A 26 20 77 CALM 30.25R Linden NOT AVBL Sussex N/A 26 19 74 CALM 30.23R Andover N/A 30 15 53 CALM 30.23R Trenton N/A 34 18 52 W3 30.27R Millville N/A 24 21 88 CALM 30.30R Atlantic City N/A 26 17 68 CALM 30.30R Wrightstown N/A 33 17 52 SW3 30.26R Toms River N/A 24 20 84 CALM 30.30R Belmar N/A 32 20 61 SW5 30.28R WCI 27 $$ PAZ047>061-062-071-270500- EASTERN PENNSYLVANIA CITY SKY/WX TMP DP RH WIND PRES REMARKS Philadelphia N/A 37 17 44 W7 30.30R WCI 32 Allentown N/A 29 16 58 SW5 30.26R WCI 24 Scranton N/A 31 16 54 VRB5 30.20R WCI 26 $$ CTZ002-004>006-009-010-012-RIZ004-006-007-MAZ004-011-015-270500- SOUTHERN NEW ENGLAND IN CT CITY SKY/WX TMP DP RH WIND PRES REMARKS Bradley INTL N/A 29 18 63 S6 30.20R WCI 23 Hartford N/A 30 21 69 S6 30.22R WCI 24 Danbury N/A 28 15 58 W6 30.22R WCI 22 Wtrbury/Oxford N/A 30 14 51 W5 30.19S WCI 25 Bridgeport N/A 35 20 54 W5 30.23R WCI 31 Meriden N/A 27 19 72 CALM 30.22R New Haven N/A 35 18 49 W6 30.22S WCI 30 Chester N/A 30 16 55 CALM 30.20S Groton N/A 31 20 63 W3 30.22R Wilimantic N/A 29 18 63 CALM 30.21R IN RI CITY SKY/WX TMP DP RH WIND PRES REMARKS Providence N/A 32 16 51 W7 30.21R WCI 26 Block Island N/A 34 20 56 NW8 30.22R WCI 27 Westerly N/A 32 15 49 CALM 30.22R IN MA CITY SKY/WX TMP DP RH WIND PRES REMARKS Boston N/A 34 16 47 W12 30.18R WCI 25 Worcester N/A 27 15 61 W7 30.12R WCI 19 Westfield N/A 26 19 74 S5 30.18R WCI 20 Provincetown N/A 35 19 52 W21 30.18R WCI 24 Nantucket N/A 34 17 50 W9 30.19R WCI 27 $$ ANZ330-335-338-340-345-350-353-355-270500- COASTAL MARINE OBSERVATIONS STATION/POSITION TIME SKY/WX TEMP WIND PRES VSBY WAVE AIR SEA DIR/SP/G HT/PER (UTC) (F) (DEG/KT/KT) (MB) (MI) (FT/S) NY HARB ENTRANCE 0250 40 42 290/ 16/ 19 1024.1 3/10 20 S FIRE ISLAND 0350 40 43 290/ 14/ 17 1024.4 4/10 GREAT SOUTH BAY NOT AVBL 23 SSW MONTAUK P 0250 39 44 1023.4 5/10 15 E BARNEGAT LI 0330 44 N/A 3/10 HUDSON CANYON 0250 47 1024.5 6/ 6 KINGS POINT 0348 38 40 1024.2 EXECUTION ROCKS NOT AVBL CENTRAL LI SOUND 0300 38 290/ 16/ 17 N/A 2/ 4 EASTERN LI SOUND NOT AVBL ROBBINS REEF 0348 37 280/ 11/ 12 1024.8 $$ >>>>>>>>>>>>>>>>>>>>>>>>>>>> KEY <<<<<<<<<<<<<<<<<<<<<<<<<<< > < > SKY/WX - Sky Condition/Present Weather < > TMP - Temperature in Fahrenheit < > DP - Dew Point in Fahrenheit < > RH - Relative Humidity in Percent < > WIND - Direction (from) and Speed in MPH < > PRES - Mean Sea Level Pressure (inches of Hg) < > WCI - Wind Chill Index < > VSB - VISIBILITY IN MILES < > HX - HEAT INDEX < > TC - TEMPERATURE IN CELSIUS < > VRB - VARIABLE WIND DIRECTION < > < >>>>>>>>>>>>>>>>>>>>>>>>>>>> KEY <<<<<<<<<<<<<<<<<<<<<<<<<<<

USA.gov is the U.S. government's official web portal to all federal, state and local government web resources and services.